Year,Month,Day,Hour,Minute,Value (Times are PST for temperature in C)
2014,02,09,00,00,-5.60
2014,02,09,00,01,-5.60
2014,02,09,00,02,-5.70
2014,02,09,00,03,-5.70
2014,02,09,00,04,-5.70
2014,02,09,00,05,-5.80
2014,02,09,00,06,-5.80
2014,02,09,00,07,-5.80
2014,02,09,00,08,-5.80
2014,02,09,00,09,-5.80
2014,02,09,00,10,-5.80
2014,02,09,00,11,-5.80
2014,02,09,00,12,-5.80
2014,02,09,00,13,-5.80
2014,02,09,00,14,-5.80
2014,02,09,00,15,-5.80
2014,02,09,00,16,-5.80
2014,02,09,00,17,-5.90
2014,02,09,00,18,-5.90
2014,02,09,00,19,-5.90
2014,02,09,00,20,-6.00
2014,02,09,00,21,-6.00
2014,02,09,00,22,-6.00
2014,02,09,00,23,-6.00
2014,02,09,00,24,-6.00
2014,02,09,00,25,-6.10
2014,02,09,00,26,-6.10
2014,02,09,00,27,-6.10
2014,02,09,00,28,-6.10
2014,02,09,00,29,-6.10
2014,02,09,00,30,-6.00
2014,02,09,00,31,-6.00
2014,02,09,00,32,-6.00
2014,02,09,00,33,-6.00
2014,02,09,00,34,-5.90
2014,02,09,00,35,-5.90
2014,02,09,00,36,-5.90
2014,02,09,00,37,-5.90
2014,02,09,00,38,-5.90
2014,02,09,00,39,-5.80
2014,02,09,00,40,-5.80
2014,02,09,00,41,-5.70
2014,02,09,00,42,-5.70
2014,02,09,00,43,-5.60
2014,02,09,00,44,-5.60
2014,02,09,00,45,-5.60
2014,02,09,00,46,-5.60
2014,02,09,00,47,-5.60
2014,02,09,00,48,-5.60
2014,02,09,00,49,-5.60
2014,02,09,00,50,-5.60
2014,02,09,00,51,-5.70
2014,02,09,00,52,-5.70
2014,02,09,00,53,-5.70
2014,02,09,00,54,-5.70
2014,02,09,00,55,-5.70
2014,02,09,00,56,-5.70
2014,02,09,00,57,-5.70
2014,02,09,00,58,-5.70
2014,02,09,00,59,-5.70
2014,02,09,01,00,-5.70
2014,02,09,01,01,-5.70
2014,02,09,01,02,-5.70
2014,02,09,01,03,-5.70
2014,02,09,01,04,-5.80
2014,02,09,01,05,-5.80
2014,02,09,01,06,-5.70
2014,02,09,01,07,-5.70
2014,02,09,01,08,-5.70
2014,02,09,01,09,-5.70
2014,02,09,01,10,-5.70
2014,02,09,01,11,-5.70
2014,02,09,01,12,-5.70
2014,02,09,01,13,-5.70
2014,02,09,01,14,-5.70
2014,02,09,01,15,-5.70
2014,02,09,01,16,-5.70
2014,02,09,01,17,-5.70
2014,02,09,01,18,-5.70
2014,02,09,01,19,-5.70
2014,02,09,01,20,-5.70
2014,02,09,01,21,-5.70
2014,02,09,01,22,-5.70
2014,02,09,01,23,-5.60
2014,02,09,01,24,-5.60
2014,02,09,01,25,-5.60
2014,02,09,01,26,-5.60
2014,02,09,01,27,-5.60
2014,02,09,01,28,-5.50
2014,02,09,01,29,-5.50
2014,02,09,01,30,-5.40
2014,02,09,01,31,-5.40
2014,02,09,01,32,-5.30
2014,02,09,01,33,-5.30
2014,02,09,01,34,-5.20
2014,02,09,01,35,-5.10
2014,02,09,01,36,-5.00
2014,02,09,01,37,-5.00
2014,02,09,01,38,-4.90
2014,02,09,01,39,-4.80
2014,02,09,01,40,-4.70
2014,02,09,01,41,-4.60
2014,02,09,01,42,-4.50
2014,02,09,01,43,-4.40
2014,02,09,01,44,-4.30
2014,02,09,01,45,-4.20
2014,02,09,01,46,-4.20
2014,02,09,01,47,-4.20
2014,02,09,01,48,-4.10
2014,02,09,01,49,-4.10
2014,02,09,01,50,-4.00
2014,02,09,01,51,-4.00
2014,02,09,01,52,-3.90
2014,02,09,01,53,-3.80
2014,02,09,01,54,-3.80
2014,02,09,01,55,-3.70
2014,02,09,01,56,-3.70
2014,02,09,01,57,-3.60
2014,02,09,01,58,-3.50
2014,02,09,01,59,-3.40
2014,02,09,02,00,-3.40
2014,02,09,02,01,-3.30
2014,02,09,02,02,-3.30
2014,02,09,02,03,-3.20
2014,02,09,02,04,-3.10
2014,02,09,02,05,-3.00
2014,02,09,02,06,-2.90
2014,02,09,02,07,-2.80
2014,02,09,02,08,-2.70
2014,02,09,02,09,-2.50
2014,02,09,02,10,-2.40
2014,02,09,02,11,-2.30
2014,02,09,02,12,-2.20
2014,02,09,02,13,-2.00
2014,02,09,02,14,-1.90
2014,02,09,02,15,-1.80
2014,02,09,02,16,-1.70
2014,02,09,02,17,-1.50
2014,02,09,02,18,-1.40
2014,02,09,02,19,-1.30
2014,02,09,02,20,-1.20
2014,02,09,02,21,-1.00
2014,02,09,02,22,-0.90
2014,02,09,02,23,-0.80
2014,02,09,02,24,-0.70
2014,02,09,02,25,-0.60
2014,02,09,02,26,-0.50
2014,02,09,02,27,-0.50
2014,02,09,02,28,-0.40
2014,02,09,02,29,-0.40
2014,02,09,02,30,-0.40
2014,02,09,02,31,-0.30
2014,02,09,02,32,-0.30
2014,02,09,02,33,-0.30
2014,02,09,02,34,-0.20
2014,02,09,02,35,-0.20
2014,02,09,02,36,-0.10
2014,02,09,02,37,-0.10
2014,02,09,02,38,-0.10
2014,02,09,02,39,-0.10
2014,02,09,02,40,0.00
2014,02,09,02,41,0.10
2014,02,09,02,42,0.10
2014,02,09,02,43,0.20
2014,02,09,02,44,0.20
2014,02,09,02,45,0.20
2014,02,09,02,46,0.20
2014,02,09,02,47,0.20
2014,02,09,02,48,0.20
2014,02,09,02,49,0.20
2014,02,09,02,50,0.20
2014,02,09,02,51,0.30
2014,02,09,02,52,0.30
2014,02,09,02,53,0.30
2014,02,09,02,54,0.30
2014,02,09,02,55,0.30
2014,02,09,02,56,0.30
2014,02,09,02,57,0.30
2014,02,09,02,58,0.20
2014,02,09,02,59,0.10
2014,02,09,03,00,-0.10
2014,02,09,03,01,-0.10
2014,02,09,03,02,-0.20
2014,02,09,10,03,-0.20
2014,02,09,10,04,-0.20
2014,02,09,10,05,-0.20
2014,02,09,10,06,-0.20
2014,02,09,10,07,-0.10
2014,02,09,10,08,-0.10
2014,02,09,10,09,0.00
2014,02,09,10,10,0.00
2014,02,09,10,11,0.10
2014,02,09,10,12,0.10
2014,02,09,10,13,0.10
2014,02,09,10,14,0.10
2014,02,09,10,15,0.10
2014,02,09,10,16,0.10
2014,02,09,10,17,0.10
2014,02,09,10,18,0.10
2014,02,09,10,19,0.10
2014,02,09,10,20,0.10
2014,02,09,10,21,0.10
2014,02,09,10,22,0.20
2014,02,09,10,23,0.30
2014,02,09,10,24,0.40
2014,02,09,10,25,0.40
2014,02,09,10,26,0.50
2014,02,09,10,27,0.60
2014,02,09,10,28,0.70
2014,02,09,10,29,0.70
2014,02,09,10,30,0.80
2014,02,09,10,31,0.90
2014,02,09,10,32,1.00
2014,02,09,10,33,1.10
2014,02,09,10,34,1.20
2014,02,09,10,35,1.20
2014,02,09,10,36,1.20
2014,02,09,10,37,1.30
2014,02,09,10,38,1.30
2014,02,09,10,39,1.30
2014,02,09,10,40,1.30
2014,02,09,10,41,1.30
2014,02,09,10,42,1.30
2014,02,09,10,43,1.40
2014,02,09,10,44,1.40
2014,02,09,10,45,1.40
2014,02,09,10,46,1.40
2014,02,09,10,47,1.40
2014,02,09,10,48,1.30
2014,02,09,10,49,1.30
2014,02,09,10,50,1.30
2014,02,09,10,51,1.30
2014,02,09,10,52,1.30
2014,02,09,10,53,1.20
2014,02,09,10,54,1.20
2014,02,09,10,55,1.20
2014,02,09,10,56,1.20
2014,02,09,10,57,1.30
2014,02,09,10,58,1.40
2014,02,09,10,59,1.40
2014,02,09,11,00,1.50
2014,02,09,11,01,1.50
2014,02,09,11,02,1.60
2014,02,09,11,03,1.60
2014,02,09,11,04,1.60
2014,02,09,11,05,1.60
2014,02,09,11,06,1.70
2014,02,09,11,07,1.70
2014,02,09,11,08,1.80
2014,02,09,11,09,1.80
2014,02,09,11,10,1.80
2014,02,09,11,11,1.80
2014,02,09,11,12,1.90
2014,02,09,11,13,1.90
2014,02,09,11,14,2.00
2014,02,09,11,15,2.10
2014,02,09,11,16,2.10
2014,02,09,11,17,2.20
2014,02,09,11,18,2.20
2014,02,09,11,19,2.20
2014,02,09,11,20,2.30
2014,02,09,11,21,2.40
2014,02,09,11,22,2.40
2014,02,09,11,23,2.40
2014,02,09,11,24,2.50
2014,02,09,11,25,2.50
2014,02,09,11,26,2.60
2014,02,09,11,27,2.60
2014,02,09,11,28,2.60
2014,02,09,11,29,2.60
2014,02,09,11,30,2.60
2014,02,09,11,31,2.70
2014,02,09,11,32,2.80
2014,02,09,11,33,2.80
2014,02,09,11,34,2.80
2014,02,09,11,35,2.80
2014,02,09,11,36,2.80
2014,02,09,11,37,2.80
2014,02,09,11,38,2.80
2014,02,09,11,39,2.80
2014,02,09,11,40,2.80
2014,02,09,11,41,2.80
2014,02,09,11,42,2.80
2014,02,09,11,43,2.80
2014,02,09,11,44,2.80
2014,02,09,11,45,2.90
2014,02,09,11,46,2.80
2014,02,09,11,47,2.80
2014,02,09,11,48,2.80
2014,02,09,11,49,2.80
2014,02,09,11,50,2.90
2014,02,09,11,51,2.90
2014,02,09,11,52,2.90
2014,02,09,11,53,2.90
2014,02,09,11,54,2.90
2014,02,09,11,55,2.80
2014,02,09,11,56,2.80
2014,02,09,11,57,2.70
2014,02,09,11,58,2.60
2014,02,09,11,59,2.60
2014,02,09,12,00,2.60
2014,02,09,12,01,2.70
2014,02,09,12,02,2.70
2014,02,09,12,03,2.80
2014,02,09,12,04,3.00
2014,02,09,12,05,3.10
2014,02,09,12,06,3.20
2014,02,09,12,07,3.20
2014,02,09,12,08,3.20
2014,02,09,12,09,3.20
2014,02,09,12,10,3.20
2014,02,09,12,11,3.20
2014,02,09,12,12,3.20
2014,02,09,12,13,3.10
2014,02,09,12,14,3.10
2014,02,09,12,15,3.10
2014,02,09,12,16,3.20
2014,02,09,12,17,3.20
2014,02,09,12,18,3.20
2014,02,09,12,19,3.20
2014,02,09,12,20,3.30
2014,02,09,12,21,3.30
2014,02,09,12,22,3.30
2014,02,09,12,23,3.30
2014,02,09,12,24,3.30
2014,02,09,12,25,3.30
2014,02,09,12,26,3.40
2014,02,09,12,27,3.40
2014,02,09,12,28,3.40
2014,02,09,12,29,3.40
2014,02,09,12,30,3.30
2014,02,09,12,31,3.30
2014,02,09,12,32,3.30
2014,02,09,12,33,3.20
2014,02,09,12,34,3.20
2014,02,09,12,35,3.20
2014,02,09,12,36,3.20
2014,02,09,12,37,3.10
2014,02,09,12,38,3.10
2014,02,09,12,39,3.20
2014,02,09,12,40,3.20
2014,02,09,12,41,3.20
2014,02,09,12,42,3.20
2014,02,09,12,43,3.20
2014,02,09,12,44,3.10
2014,02,09,12,45,3.10
2014,02,09,12,46,3.10
2014,02,09,12,47,3.00
2014,02,09,12,48,3.00
2014,02,09,12,49,3.00
2014,02,09,12,50,3.00
2014,02,09,12,51,3.00
2014,02,09,12,52,3.10
2014,02,09,12,53,3.10
2014,02,09,12,54,3.10
2014,02,09,12,55,3.10
2014,02,09,12,56,3.10
2014,02,09,12,57,3.20
2014,02,09,12,58,3.20
2014,02,09,12,59,3.20
2014,02,09,13,00,3.20
2014,02,09,13,01,3.20
2014,02,09,13,02,3.20
2014,02,09,13,03,3.20
2014,02,09,13,04,3.30
2014,02,09,13,05,3.30
2014,02,09,13,06,3.30
2014,02,09,13,07,3.30
2014,02,09,13,08,3.20
2014,02,09,13,09,3.20
2014,02,09,13,10,3.10
2014,02,09,13,11,3.00
2014,02,09,13,12,2.90
2014,02,09,13,13,2.80
2014,02,09,13,14,2.80
2014,02,09,13,15,2.80
2014,02,09,13,16,2.70
2014,02,09,13,17,2.70
2014,02,09,13,18,2.60
2014,02,09,13,19,2.60
2014,02,09,13,20,2.60
2014,02,09,13,21,2.50
2014,02,09,13,22,2.50
2014,02,09,13,23,2.50
2014,02,09,13,24,2.40
2014,02,09,13,25,2.40
2014,02,09,13,26,2.30
2014,02,09,13,27,2.30
2014,02,09,13,28,2.30
2014,02,09,13,29,2.30
2014,02,09,13,30,2.20
2014,02,09,13,31,2.20
2014,02,09,13,32,2.20
2014,02,09,13,33,2.20
2014,02,09,13,34,2.20
2014,02,09,13,35,2.20
2014,02,09,13,36,2.20
2014,02,09,13,37,2.10
2014,02,09,13,38,2.10
2014,02,09,13,39,2.10
2014,02,09,13,40,2.10
2014,02,09,13,41,2.10
2014,02,09,13,42,2.10
2014,02,09,13,43,2.10
2014,02,09,13,44,2.10
2014,02,09,13,45,2.10
2014,02,09,13,46,2.10
2014,02,09,13,47,2.10
2014,02,09,13,48,2.10
2014,02,09,13,49,2.10
2014,02,09,13,50,2.10
2014,02,09,13,51,2.10
2014,02,09,13,52,2.10
2014,02,09,13,53,2.10
2014,02,09,13,54,2.10
2014,02,09,13,55,2.10
2014,02,09,13,56,2.10
2014,02,09,13,57,2.10
2014,02,09,13,58,2.20
2014,02,09,13,59,2.20
2014,02,09,14,00,2.20
2014,02,09,14,01,2.20
2014,02,09,14,02,2.20
2014,02,09,14,03,2.20
2014,02,09,14,04,2.20
2014,02,09,14,05,2.20
2014,02,09,14,06,2.20
2014,02,09,14,07,2.20
2014,02,09,14,08,2.20
2014,02,09,14,09,2.20
2014,02,09,14,10,2.20
2014,02,09,14,11,2.20
2014,02,09,14,12,2.20
2014,02,09,14,13,2.20
2014,02,09,14,14,2.20
2014,02,09,14,15,2.20
2014,02,09,14,16,2.20
2014,02,09,14,17,2.20
2014,02,09,14,18,2.20
2014,02,09,14,19,2.20
2014,02,09,14,20,2.20
2014,02,09,14,21,2.20
2014,02,09,14,22,2.20
2014,02,09,14,23,2.20
2014,02,09,14,24,2.20
2014,02,09,14,25,2.20
2014,02,09,14,26,2.10
2014,02,09,14,27,2.10
2014,02,09,14,28,2.10
2014,02,09,14,29,2.10
2014,02,09,14,30,2.10
2014,02,09,14,31,2.10
2014,02,09,14,32,2.10
2014,02,09,14,33,2.10
2014,02,09,14,34,2.20
2014,02,09,14,35,2.20
2014,02,09,14,36,2.20
2014,02,09,14,37,2.20
2014,02,09,14,38,2.20
2014,02,09,14,39,2.20
2014,02,09,14,40,2.30
2014,02,09,14,41,2.30
2014,02,09,14,42,2.30
2014,02,09,14,43,2.30
2014,02,09,14,44,2.40
2014,02,09,14,45,2.50
2014,02,09,14,46,2.60
2014,02,09,14,47,2.60
2014,02,09,14,48,2.60
2014,02,09,14,49,2.70
2014,02,09,14,50,2.70
2014,02,09,14,51,2.70
2014,02,09,14,52,2.70
2014,02,09,14,53,2.70
2014,02,09,14,54,2.70
2014,02,09,14,55,2.70
2014,02,09,14,56,2.70
2014,02,09,14,57,2.70
2014,02,09,14,58,2.60
2014,02,09,14,59,2.60
2014,02,09,15,00,2.70
2014,02,09,15,01,2.70
2014,02,09,15,02,2.70
2014,02,09,15,03,2.60
2014,02,09,15,04,2.70
2014,02,09,15,05,2.60
2014,02,09,15,06,2.60
2014,02,09,15,07,2.60
2014,02,09,15,08,2.60
2014,02,09,15,09,2.70
2014,02,09,15,10,2.70
2014,02,09,15,11,2.70
2014,02,09,15,12,2.70
2014,02,09,15,13,2.70
2014,02,09,15,14,2.70
2014,02,09,15,15,2.70
2014,02,09,15,16,2.70
2014,02,09,15,17,2.70
2014,02,09,15,18,2.70
2014,02,09,15,19,2.60
2014,02,09,15,20,2.60
2014,02,09,15,21,2.60
2014,02,09,15,22,2.60
2014,02,09,15,23,2.60
2014,02,09,15,24,2.60
2014,02,09,15,25,2.60
2014,02,09,15,26,2.60
2014,02,09,15,27,2.60
2014,02,09,15,28,2.60
2014,02,09,15,29,2.60
2014,02,09,15,30,2.60
2014,02,09,15,31,2.60
2014,02,09,15,32,2.60
2014,02,09,15,33,2.60
2014,02,09,15,34,2.60
2014,02,09,15,35,2.50
2014,02,09,15,36,2.60
2014,02,09,15,37,2.60
2014,02,09,15,38,2.60
2014,02,09,15,39,2.60
2014,02,09,15,40,2.60
2014,02,09,15,41,2.60
2014,02,09,15,42,2.60
2014,02,09,15,43,2.60
2014,02,09,15,44,2.60
2014,02,09,15,45,2.60
2014,02,09,15,46,2.60
2014,02,09,15,47,2.60
2014,02,09,15,48,2.60
2014,02,09,15,49,2.60
2014,02,09,15,50,2.60
2014,02,09,15,51,2.60
2014,02,09,15,52,2.60
2014,02,09,15,53,2.60
2014,02,09,15,54,2.60
2014,02,09,15,55,2.60
2014,02,09,15,56,2.60
2014,02,09,15,57,2.60
2014,02,09,15,58,2.60
2014,02,09,15,59,2.60
2014,02,09,16,00,2.60
2014,02,09,16,01,2.60
2014,02,09,16,02,2.60
2014,02,09,16,03,2.60
2014,02,09,16,04,2.60
2014,02,09,16,05,2.60
2014,02,09,16,06,2.60
2014,02,09,16,07,2.60
2014,02,09,16,08,2.60
2014,02,09,16,09,2.50
2014,02,09,16,10,2.60
2014,02,09,16,11,2.50
2014,02,09,16,12,2.50
2014,02,09,16,13,2.50
2014,02,09,16,14,2.50
2014,02,09,16,15,2.50
2014,02,09,16,16,2.50
2014,02,09,16,17,2.50
2014,02,09,16,18,2.50
2014,02,09,16,19,2.50
2014,02,09,16,20,2.50
2014,02,09,16,21,2.50
2014,02,09,16,22,2.50
2014,02,09,16,23,2.50
2014,02,09,16,24,2.50
2014,02,09,16,25,2.50
2014,02,09,16,26,2.50
2014,02,09,16,27,2.50
2014,02,09,16,28,2.50
2014,02,09,16,29,2.50
2014,02,09,16,30,2.50
2014,02,09,16,31,2.50
2014,02,09,16,32,2.50
2014,02,09,16,33,2.50
2014,02,09,16,34,2.50
2014,02,09,16,35,2.50
2014,02,09,16,36,2.50
2014,02,09,16,37,2.50
2014,02,09,16,38,2.50
2014,02,09,16,39,2.50
2014,02,09,16,40,2.50
2014,02,09,16,41,2.50
2014,02,09,16,42,2.50
2014,02,09,16,43,2.50
2014,02,09,16,44,2.50
2014,02,09,16,45,2.50
2014,02,09,16,46,2.50
2014,02,09,16,47,2.50
2014,02,09,16,48,2.50
2014,02,09,16,49,2.50
2014,02,09,16,50,2.50
2014,02,09,16,51,2.40
2014,02,09,16,52,2.40
2014,02,09,16,53,2.40
2014,02,09,16,54,2.40
2014,02,09,16,55,2.40
2014,02,09,16,56,2.40
2014,02,09,16,57,2.40
2014,02,09,16,58,2.40
2014,02,09,16,59,2.40
2014,02,09,17,00,2.40
2014,02,09,17,01,2.40
2014,02,09,17,02,2.40
2014,02,09,17,03,2.40
2014,02,09,17,04,2.40
2014,02,09,17,05,2.30
2014,02,09,17,06,2.30
2014,02,09,17,07,2.30
2014,02,09,17,08,2.30
2014,02,09,17,09,2.30
2014,02,09,17,10,2.30
2014,02,09,17,11,2.30
2014,02,09,17,12,2.30
2014,02,09,17,13,2.30
2014,02,09,17,14,2.30
2014,02,09,17,15,2.20
2014,02,09,17,16,2.20
2014,02,09,17,17,2.20
2014,02,09,17,18,2.20
2014,02,09,17,19,2.10
2014,02,09,17,20,2.10
2014,02,09,17,21,2.10
2014,02,09,17,22,2.00
2014,02,09,17,23,2.00
2014,02,09,17,24,1.90
2014,02,09,17,25,1.90
2014,02,09,17,26,1.90
2014,02,09,17,27,1.80
2014,02,09,17,28,1.80
2014,02,09,17,29,1.80
2014,02,09,17,30,1.80
2014,02,09,17,31,1.70
2014,02,09,17,32,1.70
2014,02,09,17,33,1.70
2014,02,09,17,34,1.60
2014,02,09,17,35,1.60
2014,02,09,17,36,1.60
2014,02,09,17,37,1.50
2014,02,09,17,38,1.50
2014,02,09,17,39,1.40
2014,02,09,17,40,1.40
2014,02,09,17,41,1.40
2014,02,09,17,42,1.40
2014,02,09,17,43,1.30
2014,02,09,17,44,1.30
2014,02,09,17,45,1.30
2014,02,09,17,46,1.30
2014,02,09,17,47,1.30
2014,02,09,17,48,1.30
2014,02,09,17,49,1.20
2014,02,09,17,50,1.20
2014,02,09,17,51,1.20
2014,02,09,17,52,1.20
2014,02,09,17,53,1.10
2014,02,09,17,54,1.10
2014,02,09,17,55,1.10
2014,02,09,17,56,1.10
2014,02,09,17,57,1.10
2014,02,09,17,58,1.00
2014,02,09,17,59,1.00
2014,02,09,18,00,1.00
2014,02,09,18,01,1.00
2014,02,09,18,02,0.90
2014,02,09,18,03,0.90
2014,02,09,18,04,0.90
2014,02,09,18,05,0.90
2014,02,09,18,06,0.90
2014,02,09,18,07,0.90
2014,02,09,18,08,0.90
2014,02,09,18,09,0.90
2014,02,09,18,10,0.90
2014,02,09,18,11,0.90
2014,02,09,18,12,0.90
2014,02,09,18,13,0.90
2014,02,09,18,14,0.90
2014,02,09,18,15,0.90
2014,02,09,18,16,0.90
2014,02,09,18,17,0.90
2014,02,09,18,18,0.80
2014,02,09,18,19,0.80
2014,02,09,18,20,0.80
2014,02,09,18,21,0.80
2014,02,09,18,22,0.80
2014,02,09,18,23,0.80
2014,02,09,18,24,0.80
2014,02,09,18,25,0.80
2014,02,09,18,26,0.80
2014,02,09,18,27,0.80
2014,02,09,18,28,0.80
2014,02,09,18,29,0.80
2014,02,09,18,30,0.80
2014,02,09,18,31,0.80
2014,02,09,18,32,0.80
2014,02,09,18,33,0.80
2014,02,09,18,34,0.80
2014,02,09,18,35,0.80
2014,02,09,18,36,0.80
2014,02,09,18,37,0.80
2014,02,09,18,38,0.80
2014,02,09,18,39,0.80
2014,02,09,18,40,0.80
2014,02,09,18,41,0.80
2014,02,09,18,42,0.80
2014,02,09,18,43,0.80
2014,02,09,18,44,0.80
2014,02,09,18,45,0.80
2014,02,09,18,46,0.80
2014,02,09,18,47,0.80
2014,02,09,18,48,0.80
2014,02,09,18,49,0.80
2014,02,09,18,50,0.80
2014,02,09,18,51,0.80
2014,02,09,18,52,0.80
2014,02,09,18,53,0.80
2014,02,09,18,54,0.80
2014,02,09,18,55,0.80
2014,02,09,18,56,0.80
2014,02,09,18,57,0.80
2014,02,09,18,58,0.80
2014,02,09,18,59,0.80
2014,02,09,19,00,0.80
2014,02,09,19,01,0.90
2014,02,09,19,02,0.90
2014,02,09,19,03,0.90
2014,02,09,19,04,0.90
2014,02,09,19,05,0.90
2014,02,09,19,06,0.90
2014,02,09,19,07,0.90
2014,02,09,19,08,0.90
2014,02,09,19,09,0.90
2014,02,09,19,10,0.90
2014,02,09,19,11,0.90
2014,02,09,19,12,0.90
2014,02,09,19,13,0.90
2014,02,09,19,14,0.90
2014,02,09,19,15,0.90
2014,02,09,19,16,0.80
2014,02,09,19,17,0.90
2014,02,09,19,18,0.80
2014,02,09,19,19,0.90
2014,02,09,19,20,0.90
2014,02,09,19,21,0.90
2014,02,09,19,22,0.90
2014,02,09,19,23,0.90
2014,02,09,19,24,0.90
2014,02,09,19,25,0.90
2014,02,09,19,26,0.90
2014,02,09,19,27,0.90
2014,02,09,19,28,0.90
2014,02,09,19,29,0.90
2014,02,09,19,30,0.90
2014,02,09,19,31,0.90
2014,02,09,19,32,0.90
2014,02,09,19,33,0.90
2014,02,09,19,34,0.90
2014,02,09,19,35,0.90
2014,02,09,19,36,0.90
2014,02,09,19,37,0.90
2014,02,09,19,38,0.90
2014,02,09,19,39,0.90
2014,02,09,19,40,0.90
2014,02,09,19,41,0.90
2014,02,09,19,42,0.90
2014,02,09,19,43,0.90
2014,02,09,19,44,0.90
2014,02,09,19,45,0.90
2014,02,09,19,46,0.90
2014,02,09,19,47,0.90
2014,02,09,19,48,0.90
2014,02,09,19,49,0.90
2014,02,09,19,50,0.90
2014,02,09,19,51,0.90
2014,02,09,19,52,0.90
2014,02,09,19,53,0.90
2014,02,09,19,54,0.90
2014,02,09,19,55,1.00
2014,02,09,19,56,1.00
2014,02,09,19,57,1.00
2014,02,09,19,58,1.00
2014,02,09,19,59,1.00
2014,02,09,20,00,1.00
2014,02,09,20,01,0.90
2014,02,09,20,02,0.90
2014,02,09,20,03,0.90
2014,02,09,20,04,0.90
2014,02,09,20,05,0.90
2014,02,09,20,06,0.90
2014,02,09,20,07,0.90
2014,02,09,20,08,1.00
2014,02,09,20,09,1.00
2014,02,09,20,10,1.10
2014,02,09,20,11,1.10
2014,02,09,20,12,1.10
2014,02,09,20,13,1.10
2014,02,09,20,14,1.10
2014,02,09,20,15,1.10
2014,02,09,20,16,1.10
2014,02,09,20,17,1.10
2014,02,09,20,18,1.10
2014,02,09,20,19,1.10
2014,02,09,20,20,1.10
2014,02,09,20,21,1.10
2014,02,09,20,22,1.10
2014,02,09,20,23,1.10
2014,02,09,20,24,1.20
2014,02,09,20,25,1.20
2014,02,09,20,26,1.20
2014,02,09,20,27,1.20
2014,02,09,20,28,1.20
2014,02,09,20,29,1.20
2014,02,09,20,30,1.30
2014,02,09,20,31,1.30
2014,02,09,20,32,1.30
2014,02,09,20,33,1.30
2014,02,09,20,34,1.30
2014,02,09,20,35,1.40
2014,02,09,20,36,1.40
2014,02,09,20,37,1.40
2014,02,09,20,38,1.50
2014,02,09,20,39,1.50
2014,02,09,20,40,1.40
2014,02,09,20,41,1.40
2014,02,09,20,42,1.40
2014,02,09,20,43,1.40
2014,02,09,20,44,1.40
2014,02,09,20,45,1.40
2014,02,09,20,46,1.40
2014,02,09,20,47,1.50
2014,02,09,20,48,1.50
2014,02,09,20,49,1.50
2014,02,09,20,50,1.50
2014,02,09,20,51,1.60
2014,02,09,20,52,1.60
2014,02,09,20,53,1.60
2014,02,09,20,54,1.70
2014,02,09,20,55,1.70
2014,02,09,20,56,1.80
2014,02,09,20,57,1.80
2014,02,09,20,58,1.80
2014,02,09,20,59,1.80
2014,02,09,21,00,1.90
2014,02,09,21,01,1.90
2014,02,09,21,02,2.00
2014,02,09,21,03,2.00
2014,02,09,21,04,2.10
2014,02,09,21,05,2.10
2014,02,09,21,06,2.10
2014,02,09,21,07,2.20
2014,02,09,21,08,2.20
2014,02,09,21,09,2.20
2014,02,09,21,10,2.30
2014,02,09,21,11,2.30
2014,02,09,21,12,2.30
2014,02,09,21,13,2.30
2014,02,09,21,14,2.30
2014,02,09,21,15,2.30
2014,02,09,21,16,2.20
2014,02,09,21,17,2.20
2014,02,09,21,18,2.20
2014,02,09,21,19,2.20
2014,02,09,21,20,2.20
2014,02,09,21,21,2.20
2014,02,09,21,22,2.10
2014,02,09,21,23,2.10
2014,02,09,21,24,2.10
2014,02,09,21,25,2.00
2014,02,09,21,26,2.00
2014,02,09,21,27,2.00
2014,02,09,21,28,1.90
2014,02,09,21,29,1.90
2014,02,09,21,30,1.90
2014,02,09,21,31,1.80
2014,02,09,21,32,1.80
2014,02,09,21,33,1.80
2014,02,09,21,34,1.80
2014,02,09,21,35,1.70
2014,02,09,21,36,1.70
2014,02,09,21,37,1.70
2014,02,09,21,38,1.70
2014,02,09,21,39,1.70
2014,02,09,21,40,1.60
2014,02,09,21,41,1.70
2014,02,09,21,42,1.60
2014,02,09,21,43,1.60
2014,02,09,21,44,1.60
2014,02,09,21,45,1.60
2014,02,09,21,46,1.60
2014,02,09,21,47,1.60
2014,02,09,21,48,1.60
2014,02,09,21,49,1.60
2014,02,09,21,50,1.60
2014,02,09,21,51,1.50
2014,02,09,21,52,1.50
2014,02,09,21,53,1.50
2014,02,09,21,54,1.50
2014,02,09,21,55,1.50
2014,02,09,21,56,1.50
2014,02,09,21,57,1.50
2014,02,09,21,58,1.50
2014,02,09,21,59,1.50
2014,02,09,22,00,1.40
2014,02,09,22,01,1.40
2014,02,09,22,02,1.40
2014,02,09,22,03,1.40
2014,02,09,22,04,1.40
2014,02,09,22,05,1.40
2014,02,09,22,06,1.40
2014,02,09,22,07,1.30
2014,02,09,22,08,1.30
2014,02,09,22,09,1.30
2014,02,09,22,10,1.30
2014,02,09,22,11,1.30
2014,02,09,22,12,1.30
2014,02,09,22,13,1.30
2014,02,09,22,14,1.30
2014,02,09,22,15,1.30
2014,02,09,22,16,1.30
2014,02,09,22,17,1.30
2014,02,09,22,18,1.30
2014,02,09,22,19,1.30
2014,02,09,22,20,1.30
2014,02,09,22,21,1.30
2014,02,09,22,22,1.30
2014,02,09,22,23,1.30
2014,02,09,22,24,1.30
2014,02,09,22,25,1.30
2014,02,09,22,26,1.30
2014,02,09,22,27,1.30
2014,02,09,22,28,1.30
2014,02,09,22,29,1.30
2014,02,09,22,30,1.30
2014,02,09,22,31,1.30
2014,02,09,22,32,1.30
2014,02,09,22,33,1.30
2014,02,09,22,34,1.40
2014,02,09,22,35,1.40
2014,02,09,22,36,1.40
2014,02,09,22,37,1.40
2014,02,09,22,38,1.40
2014,02,09,22,39,1.40
2014,02,09,22,40,1.40
2014,02,09,22,41,1.40
2014,02,09,22,42,1.40
2014,02,09,22,43,1.40
2014,02,09,22,44,1.40
2014,02,09,22,45,1.40
2014,02,09,22,46,1.40
2014,02,09,22,47,1.30
2014,02,09,22,48,1.40
2014,02,09,22,49,1.30
2014,02,09,22,50,1.30
2014,02,09,22,51,1.30
2014,02,09,22,52,1.30
2014,02,09,22,53,1.30
2014,02,09,22,54,1.30
2014,02,09,22,55,1.30
2014,02,09,22,56,1.30
2014,02,09,22,57,1.30
2014,02,09,22,58,1.30
2014,02,09,22,59,1.20
2014,02,09,23,00,1.20
2014,02,09,23,01,1.20
2014,02,09,23,02,1.20
2014,02,09,23,03,1.20
2014,02,09,23,04,1.20
2014,02,09,23,05,1.20
2014,02,09,23,06,1.20
2014,02,09,23,07,1.10
2014,02,09,23,08,1.10
2014,02,09,23,09,1.10
2014,02,09,23,10,1.10
2014,02,09,23,11,1.10
2014,02,09,23,12,1.00
2014,02,09,23,13,1.00
2014,02,09,23,14,1.00
2014,02,09,23,15,1.00
2014,02,09,23,16,1.00
2014,02,09,23,17,1.00
2014,02,09,23,18,0.90
2014,02,09,23,19,0.90
2014,02,09,23,20,0.90
2014,02,09,23,21,0.90
2014,02,09,23,22,0.90
2014,02,09,23,23,0.90
2014,02,09,23,24,0.80
2014,02,09,23,25,0.80
2014,02,09,23,26,0.80
2014,02,09,23,27,0.80
2014,02,09,23,28,0.80
2014,02,09,23,29,0.80
2014,02,09,23,30,0.70
2014,02,09,23,31,0.70
2014,02,09,23,32,0.70
2014,02,09,23,33,0.70
2014,02,09,23,34,0.70
2014,02,09,23,35,0.70
2014,02,09,23,36,0.70
2014,02,09,23,37,0.70
2014,02,09,23,38,0.70
2014,02,09,23,39,0.70
2014,02,09,23,40,0.60
2014,02,09,23,41,0.60
2014,02,09,23,42,0.60
2014,02,09,23,43,0.60
2014,02,09,23,44,0.60
2014,02,09,23,45,0.60
2014,02,09,23,46,0.60
2014,02,09,23,47,0.60
2014,02,09,23,48,0.60
2014,02,09,23,49,0.60
2014,02,09,23,50,0.60
2014,02,09,23,51,0.60
2014,02,09,23,52,0.60
2014,02,09,23,53,0.50
2014,02,09,23,54,0.50
2014,02,09,23,55,0.50
2014,02,09,23,56,0.50
2014,02,09,23,57,0.50
2014,02,09,23,58,0.50
2014,02,09,23,59,0.50
